Torna al catalogo

CZ-6A DEB

AttivoPO
NORAD 61432·DEBRIS·🇨🇳 China

Lanciato Aug 6, 2024 da Taiyuan Satellite Launch Center

Loading…

Prossimi Passaggi (prossime 24 ore)

TLE

AggiornatoSource: Space-Track

Epoca: Sep 14, 2026, 17:41 UTC

1 61432U 24140YZ  26257.73722623  .00005493  00000-0  40290-3 0  9990
2 61432  89.0828 263.7414 0150765 175.5851 184.6754 14.94569333111900

Traccia CZ-6A DEB in tempo reale con AllMySat

Download on the App Store